Skip Page Navigation
NASA JPL Caltech
NASA Logo - Jet Propulsion Laboratory + View the NASA Portal
+ Center for Near-Earth Object Studies
JPL Home Earth Solar System Stars & Galaxies Technology
JPL Solar System Dynamics
BODIES ORBITS EPHEMERIDES TOOLS PHYSICAL DATA DISCOVERY FAQ SITE MAP
JPL Small-Body Database Browser
Search: [ help ]  
115709 (2003 UR169)
Classification: Main-belt Asteroid          SPK-ID: 2115709
Ephemeris | Orbit Diagram | Orbital Elements | Mission Design | Physical Parameters | Discovery Circumstances | Close-Approach Data ]

[ show orbit diagram ]
Orbital Elements at Epoch 2459200.5 (2020-Dec-17.0) TDB
Reference: JPL 20 (heliocentric ecliptic J2000)
 Element Value Uncertainty (1-sigma)   Units 
e .1768498409445209 4.3022e-08  
a 2.665787710359933 1.6082e-08 au
q 2.19434357779092 1.1357e-07 au
i 13.01381434123651 5.6489e-06 deg
node 47.50795921503427 2.3857e-05 deg
peri 80.80079980372736 2.9664e-05 deg
M 251.6100196519101 1.8727e-05 deg
tp 2459679.155888299540
(2022-Apr-09.65588830)
8.4869e-05 TDB
period 1589.779048159694
4.35
1.4386e-05
3.939e-08
d
yr
n .2264465621287002 2.0492e-09 deg/d
Q 3.137231842928946 1.8926e-08 au
  Orbit Determination Parameters
   # obs. used (total)      536  
   data-arc span      7697 days (21.07 yr)  
   first obs. used      1999-12-13  
   last obs. used      2021-01-08  
   planetary ephem.      DE441  
   SB-pert. ephem.      SB441-N16  
   condition code      0  
   norm. resid. RMS      .53425  
   source      ORB  
   producer      Otto Matic  
   solution date      2021-Apr-13 16:44:48  

Additional Information
 Earth MOID = 1.25322 au 
 Jupiter MOID = 2.08204 au 
 T_jup = 3.325 
[ hide covariance matrix ]
Orbital Elements at Epoch 2457556.5 (2016-Jun-17.0) TDB
Reference: JPL 20 (heliocentric ecliptic J2000)
 Element Value Uncertainty (1-sigma)   Units 
e .1744456055509645 4.2643e-08  
q 2.202848183014365 1.1225e-07 au
tp 2458085.510426576653
(2017-Nov-28.01042658)
8.0645e-05 TDB
node 47.62362156296383 2.3793e-05 deg
peri 80.23958483522379 2.9956e-05 deg
i 13.02945363177032 5.6554e-06 deg
  Orbit Determination Parameters
   # obs. used (total)      536  
   data-arc span      7697 days (21.07 yr)  
   first obs. used      1999-12-13  
   last obs. used      2021-01-08  
   planetary ephem.      DE441  
   SB-pert. ephem.      SB441-N16  
   condition code      0  
   norm. resid. RMS      .53425  
   source      ORB  
   producer      Otto Matic  
   solution date      2021-Apr-13 16:44:48  

Additional Information
 Jupiter MOID = 2.08204 au 
 T_jup = 3.325 
Orbit Covariance (6×6)
  e q tp node peri i
e 1.818419981843605E-15 -4.753241844792719E-15 1.780743952924543E-12 9.550714759490087E-15 4.193156641931469E-13 -4.509299787886539E-15
q -4.753241844792719E-15 1.259928031039477E-14 -4.321301832257975E-12 -2.459395872686785E-14 -1.040139394570058E-12 1.214703539730435E-14
tp 1.780743952924543E-12 -4.321301832257975E-12 6.503547525242059E-9 1.499099455111287E-11 1.501048804174309E-9 -6.587300272712571E-12
node 9.550714759490087E-15 -2.459395872686785E-14 1.499099455111287E-11 5.660962218808389E-10 -5.476801857499085E-10 -7.061084935392576E-11
peri 4.193156641931469E-13 -1.040139394570058E-12 1.501048804174309E-9 -5.476801857499085E-10 8.97342482675483E-10 6.717164335379779E-11
i -4.509299787886539E-15 1.214703539730435E-14 -6.587300272712571E-12 -7.061084935392576E-11 6.717164335379779E-11 3.198343881953838E-11

Ephemeris | Orbit Diagram | Orbital Elements | Mission Design | Physical Parameters | Discovery Circumstances | Close-Approach Data ]

Physical Parameter Table
Parameter Symbol Value Units Sigma Reference Notes
absolute magnitude H 15.87   n/a E2021B55  

115709 (2003 UR169)          Discovered 2003-Oct-22 by NEAT at Haleakala
Reference: 20051019/Numbers.arcLast Updated: 2005-10-26

[ show close-approach data ]
Alternate Designations
 2003 UR169 = 2005 EM93 
Ephemeris | Orbit Diagram | Orbital Elements | Mission Design | Physical Parameters | Discovery Circumstances | Close-Approach Data ]
ABOUT SSD CREDITS/AWARDS PRIVACY/COPYRIGHT GLOSSARY LINKS
FirstGov 2021-Jun-18 04:12 UT
(server date/time)  
NASA Home Page
Site Manager:   Ryan S. Park
Webmaster  Alan B. Chamberlin